Вернуться в каталог

STARLINK-4373

АктивенСвязьSSO
NORAD 53219·PAYLOAD·🇺🇸 United States

Запущен Jul 22, 2022 с Vandenberg Space Force Base

Loading…

Ближайшие Пролёты (ближайшие 24 часа)

TLE

СвежийSource: CelesTrak SupGP

Эпоха: Sep 14, 2026, 21:52 UTC

1 53219C 22084AG  26257.91159722 -.00004811  00000+0 -14937-3 0  2573
2 53219  97.2837 313.6390 0001689  89.9891 200.1008 15.33431893    13

Отслеживайте STARLINK-4373 в реальном времени с AllMySat

Download on the App Store